E8220 Weather Reports


time (UTC)temp
C
wind
direction
speed
KPH
gust
KPH
rain 1hr
cm
rain 24hr
cm
rain mn
cm
humidity
%
barometer
mb
20260505150340 12 0.0 0.0 0.00 0.00 0.00 89 1016.6
20260505140535 12 0.0 0.0 0.00 0.00 0.00 89 1016.1
20260505120335 11 0.0 0.0 0.00 0.00 0.00 93 1015.0
20260505113221 10 0.0 0.0 0.00 0.00 0.00 93 1014.8
20260505110223 10 0.0 0.0 0.00 0.00 0.00 92 1014.7
20260505100406 11 0.0 0.0 0.00 0.00 0.00 90 1014.2
20260505093419 11 0.0 0.0 0.00 0.00 0.00 89 1013.9
20260505083117 12 0.0 0.0 0.00 0.00 0.00 87 1013.6
20260505080123 12 0.0 0.0 0.00 0.00 0.00 87 1013.2
20260505065832 13 0.0 0.0 0.00 0.00 0.00 84 1012.6
20260505062842 13 0.0 0.0 0.00 0.00 0.00 82 1012.2
20260505052618 15 0.0 0.0 0.00 0.00 0.00 75 1011.7
20260505035645 17 0.0 0.0 0.00 0.00 0.00 66 1010.7
20260505032545 18 0.0 0.0 0.00 0.00 0.00 64 1010.4
20260505025612 19 0.0 0.0 0.00 0.00 0.00 60 1010.0
20260505022446 21 0.0 0.0 0.00 0.00 0.00 54 1009.7
20260505015345 23 0.0 0.0 0.00 0.00 0.00 51 1009.5
20260505012435 24 0.0 0.0 0.00 0.00 0.00 44 1009.5
20260505005307 25 0.0 0.0 0.00 0.00 0.00 41 1009.5
20260505002207 26 0.0 0.0 0.00 0.00 0.00 39 1009.4
20260504224925 27 0.0 0.0 0.00 0.00 0.00 34 1009.9
20260504221907 27 0.0 0.0 0.00 0.00 0.00 36 1010.3
20260504214953 27 0.0 0.0 0.00 0.00 0.00 34 1010.6
20260504211941 27 0.0 0.0 0.00 0.00 0.00 40 1010.7
20260504204807 26 0.0 0.0 0.00 0.00 0.00 40 1011.0
20260504201931 26 0.0 0.0 0.00 0.00 0.00 45 1011.1
20260504195053 26 0.0 0.0 0.00 0.00 0.00 46 1011.3
20260504181558 23 0.0 0.0 0.00 0.00 0.00 49 1011.6
20260504174626 23 0.0 0.0 0.00 0.00 0.00 49 1011.5
20260504171501 21 0.0 0.0 0.00 0.00 0.00 59 1011.7